Regional Weather Roundup
Issued by NWS

Home | Current Version | Previous Version | Graphics & Text | Print | Product List | Glossary On
Versions: 1 2 3 4 5 6 7 8 9 10 11 12 13 14 15 16 17 18 19 20 21 22 23 24 25 26 27 28 29 30 31 32 33 34 35 36 37 38 39 40 41 42 43 44 45 46 47 48 49 50
000
ASUS43 KLMK 031010
RWRKY
KENTUCKY REGIONAL WEATHER ROUNDUP
NATIONAL WEATHER SERVICE LOUISVILLE KY
500 AM EST SAT DEC 03 2016

NOTE "FAIR" INDICATES FEW OR NO CLOUDS BELOW 12,000 FEET
WITH NO SIGNIFICANT WEATHER AND/OR OBSTRUCTIONS TO VISIBILITY.

KYZ001>023-026-027-061>063-070>075-031100-
WESTERN AND SOUTH CENTRAL KENTUCKY

CITY           SKY/WX    TMP DP  RH WIND       PRES   REMARKS
PADUCAH        CLOUDY    34  29  82 CALM      30.36
HENDERSON      NOT AVBL
OWENSBORO      CLOUDY    30  29  96 CALM      30.36
HOPKINSVILLE   CLEAR     34  31  86 N5        30.34F WCI  30
BOWLING GREEN  CLOUDY    34  30  85 CALM      30.35
GLASGOW        CLOUDY    32  32 100 CALM      30.34S
$$

KYZ024-025-028>034-038-045-046-053-031100-
NORTH CENTRAL KENTUCKY

CITY           SKY/WX    TMP DP  RH WIND       PRES   REMARKS
LOUISVILLE/SDF CLOUDY    41  30  65 NW5       30.34F
LOUISVILLE/LOU CLOUDY    41  31  67 CALM      30.35F
FORT KNOX      CLOUDY    38  31  74 NW2       30.32S
$$

KYZ035>037-039>044-047>052-055>060-089>105-031100-
NORTHEAST KENTUCKY

CITY           SKY/WX    TMP DP  RH WIND       PRES   REMARKS
LEXINGTON      NOT AVBL
COVINGTON      CLOUDY    36  34  92 W6        30.33R WCI  31
FRANKFORT      CLOUDY    39  31  72 CALM      30.32F
$$

KYZ054-064>069-076>088-106>120-031100-
SOUTHEAST KENTUCKY

CITY           SKY/WX    TMP DP  RH WIND       PRES   REMARKS
JACKSON        CLOUDY    35  29  78 CALM      30.31S
LONDON         CLOUDY    32  28  85 CALM      30.31F
SOMERSET       CLOUDY    32  30  93 CALM      30.35S
MIDDLESBORO    NOT AVBL
MONTICELLO     MOSUNNY   27  25  92 VRB7      30.35  WCI  19
$$




USA.gov is the U.S. government's official web portal to all federal, state and local government web resources and services.